Location: Brantley
(31.5822°N, 86.2569°W)
Time: 11:33:04
(UTC+00:00)

SR - Visible Passes

Search period start: 16 February 2026 00:00
Search period end: 26 February 2026 00:00
Orbit: 574 x 847 km, 66.7° (Epoch: 15 February)

Date Brightness Start Highest point End Pass type
(mag) Time Alt. Az. Time Alt. Az. Time Alt. Az.
16 Feb ? 09:41:23 12° NE 09:41:23 12° NE 09:41:46 10° NE visible
16 Feb ? 11:20:28 15° NW 11:20:28 15° NW 11:22:12 10° NNW visible
17 Feb ? 10:27:33 15° N 10:27:33 15° N 10:28:28 10° N visible
